Preview of NWS' New Version of Forecast
This preview is not operational and should not be used for support decisions.

Regional Weather Roundup (RWR)

Issued by Philadelphia/Mt Holly (PHI)

                            
000
ASUS41 KPHI 240312
RWRPHI

REGIONAL WEATHER ROUNDUP
NATIONAL WEATHER SERVICE MOUNT HOLLY NJ
1100 PM EDT SAT MAR 23 2019

NOTE:  "FAIR" INDICATES FEW OR NO CLOUDS BELOW 12,000 FEET WITH NO
SIGNIFICANT WEATHER AND/OR OBSTRUCTIONS TO VISIBILITY.

 * = STATION DOES NOT REPORT PRECIPITATION (E.G. RAIN, SNOW, ETC.) 
        OR FOG.

NJZ015>026-240400-
SOUTHERN NEW JERSEY
  
CITY           SKY/WX    TMP DP  RH WIND       PRES   REMARKS
POMONA         FAIR      43  17  35 W14       30.16S                  
WILDWOOD*      FAIR      45  29  53 W10       30.20R                  
MILLVILLE      FAIR      40  16  37 W6        30.19R                  
WRIGHTSTOWN    FAIR      42  11  28 NW7       30.13R                  
MOUNT HOLLY    FAIR      45  12  26 W5        30.17R                  
TRENTON        FAIR      42  10  27 W3        30.15R                  

$$
NJZ001>014-240400-
NORTHERN NEW JERSEY
  
CITY           SKY/WX    TMP DP  RH WIND       PRES   REMARKS
SUSSEX         FAIR      38  12  34 VRB7      30.12R WCI  33          
ANDOVER*         N/A     38   9  30 NW7G16    30.13R WCI  33          
MORRISTOWN     FAIR      39  12  33 CALM      30.14R                  
NEWARK         FAIR      42   9  25 W8        30.14R                  
TETERBORO      FAIR      41  12  30 NW12      30.13R                  
CALDWELL       FAIR      40  11  30 NW8       30.14R WCI  34          
SOMERVILLE     FAIR      42   9  25 CALM      30.13R                  
ALLAIRE*       FAIR      41  11  29 W8        30.15R                  
TOMS RIVER*    FAIR      32  18  56 CALM      30.16R                  

$$
PAZ043-044-047-054-055-060>062-066>071-240400-
EASTERN PENNSYLVANIA
  
CITY           SKY/WX    TMP DP  RH WIND       PRES   REMARKS
PHILADELPHIA   FAIR      45  13  27 W9        30.18R                  
NORTH PHILA    FAIR      45  12  26 W8        30.18R                  
BLUE BELL*     FAIR      41  14  33 W3        30.18S                  
DOYLESTOWN     FAIR      41   9  26 W5        30.14S                  
QUAKERTOWN*    CLEAR     41  10  28 VRB5      30.15S                  
PERKASIE*      FAIR      39   9  28 NW5       30.16R                  
POTTSTOWN      FAIR      37  14  38 W6        30.18R WCI  32          
LANCASTER      FAIR      40  18  41 W9        30.19R WCI  34          
COATESVILLE    FAIR      39  16  38 W10       30.19R WCI  32          
READING        FAIR      41  15  35 W5        30.18R                  
ALLENTOWN      FAIR      43   9  24 W10       30.15S                  
MOUNT POCONO   FAIR      30  12  47 NW12      30.07S WCI  20          
HAZLETON       FAIR      36   7  30 W8        30.15S WCI  29          
LEHIGHTON      FAIR      37  10  32 W5        30.17S WCI  34          
WILKES BARRE   FAIR      35  11  36 CALM      30.15S                  

$$
DEZALL-MDZ008-012-015-019-020-240400-
DELAWARE AND EASTERN MARYLAND
  
CITY           SKY/WX    TMP DP  RH WIND       PRES   REMARKS
WILMINGTON     FAIR      43  15  32 W10       30.20R                  
DOVER          FAIR      42  20  40 W6        30.20R                  
GEORGETOWN     FAIR      46  21  37 VRB5      30.22S                  
EASTON         FAIR      45  22  41 W5        30.26S                  
PATUXENT       FAIR      38  24  57 W7        30.25R WCI  33          
OCEAN CITY     FAIR      44  23  43 NW7       30.22R                  
WALLOPS ISLAND FAIR      43  25  49 NW6       30.24S                  
CAMBRIDGE      CLEAR     43  21  42 W6        30.24S                  
SALISBURY      FAIR      43  24  47 W7        30.23R                  

$$
PAZ001-021-NYZ056-072-MDZ011-DCZ001-240400-
OTHER NEARBY LOCATIONS
  
CITY           SKY/WX    TMP DP  RH WIND       PRES   REMARKS
HARRISBURG     FAIR      41  18  39 W8        30.20R                  
STATE COLLEGE  FAIR      37  13  38 W9        30.21S WCI  30          
WILLIAMSPORT   FAIR      34  13  41 W7        30.19S WCI  28          
BINGHAMTON     FAIR      28  13  53 W10       30.10F WCI  19          
NEW YORK CITY  FAIR      42   9  25 VRB5      30.15R                  
BALTIMORE      FAIR      39  19  44 W7        30.22F WCI  34          
WASHINGTON DC  FAIR      48  15  26 NW6       30.26S                  

$$